Meteo pe oră la Dabrowa

Astăzi, 10 Aprilie, Sâmbătă

Timp Temperatura Precipitaţii Vânt Presiune Umiditate
00:00 +3°C° 0 mm 3 m/s 750 mmHg 80%
01:00 +3°C° 0 mm 3 m/s 750 mmHg 81%
02:00 +3°C° 0 mm 3 m/s 750 mmHg 81%
03:00 +4°C° 0 mm 2 m/s 750 mmHg 82%
04:00 +4°C° 0 mm 2 m/s 750 mmHg 82%
05:00 +4°C° 0 mm 2 m/s 750 mmHg 80%
06:00 +5°C° 0 mm 2 m/s 750 mmHg 77%
07:00 +6°C° 0 mm 2 m/s 750 mmHg 74%
08:00 +7°C° 0.1 mm 2 m/s 751 mmHg 73%
09:00 +8°C° 0.1 mm 2 m/s 751 mmHg 72%
10:00 +8°C° 0.1 mm 2 m/s 751 mmHg 71%
11:00 +8°C° 0.5 mm 2 m/s 751 mmHg 76%
12:00 +8°C° 0.5 mm 2 m/s 752 mmHg 80%
13:00 +8°C° 0.5 mm 1 m/s 752 mmHg 85%
14:00 +7°C° 0.2 mm 2 m/s 752 mmHg 88%
15:00 +6°C° 0.2 mm 2 m/s 752 mmHg 90%
16:00 +6°C° 0.2 mm 2 m/s 752 mmHg 93%
17:00 +6°C° 0 mm 2 m/s 753 mmHg 93%
18:00 +7°C° 0 mm 1 m/s 753 mmHg 94%
19:00 +7°C° 0 mm 1 m/s 753 mmHg 94%
20:00 +6°C° 0 mm 1 m/s 753 mmHg 94%
21:00 +6°C° 0 mm 1 m/s 754 mmHg 94%
22:00 +6°C° 0 mm 1 m/s 754 mmHg 94%
23:00 +5°C° 0 mm 2 m/s 754 mmHg 94%

Mâine, 11 Aprilie, Duminică

Timp Temperatura Precipitaţii Vânt Presiune Umiditate
00:00 +5°C° 0 mm 2 m/s 753 mmHg 95%
01:00 +5°C° 0 mm 2 m/s 753 mmHg 95%
02:00 +5°C° 0 mm 2 m/s 753 mmHg 95%
03:00 +4°C° 0 mm 3 m/s 753 mmHg 96%
04:00 +4°C° 0 mm 3 m/s 753 mmHg 96%
05:00 +5°C° 0 mm 4 m/s 752 mmHg 93%
06:00 +6°C° 0 mm 4 m/s 752 mmHg 90%
07:00 +7°C° 0 mm 5 m/s 752 mmHg 87%
08:00 +9°C° 0 mm 5 m/s 752 mmHg 79%
09:00 +10°C° 0 mm 6 m/s 752 mmHg 72%
10:00 +13°C° 0 mm 6 m/s 752 mmHg 65%
11:00 +14°C° 0 mm 7 m/s 751 mmHg 60%
12:00 +15°C° 0 mm 7 m/s 751 mmHg 56%
13:00 +16°C° 0 mm 8 m/s 751 mmHg 52%
14:00 +16°C° 0 mm 8 m/s 751 mmHg 53%
15:00 +15°C° 0 mm 8 m/s 751 mmHg 54%
16:00 +15°C° 0 mm 8 m/s 750 mmHg 56%
17:00 +14°C° 0 mm 7 m/s 751 mmHg 58%
18:00 +11°C° 0 mm 7 m/s 751 mmHg 61%
19:00 +10°C° 0 mm 7 m/s 751 mmHg 64%
20:00 +9°C° 0 mm 7 m/s 751 mmHg 68%
21:00 +9°C° 0 mm 6 m/s 751 mmHg 71%
22:00 +8°C° 0 mm 6 m/s 751 mmHg 75%
23:00 +8°C° 0 mm 5 m/s 751 mmHg 78%

Poimâine, 12 Aprilie, Luni

Timp Temperatura Precipitaţii Vânt Presiune Umiditate
00:00 +8°C° 0 mm 5 m/s 751 mmHg 81%
01:00 +7°C° 0 mm 4 m/s 751 mmHg 84%
02:00 +7°C° 0 mm 4 m/s 751 mmHg 87%
03:00 +8°C° 0 mm 3 m/s 750 mmHg 90%
04:00 +7°C° 0 mm 3 m/s 750 mmHg 94%
05:00 +8°C° 0 mm 3 m/s 750 mmHg 90%
06:00 +9°C° 0 mm 3 m/s 750 mmHg 87%
07:00 +9°C° 0 mm 3 m/s 750 mmHg 83%
08:00 +10°C° 0 mm 3 m/s 751 mmHg 78%
09:00 +11°C° 0 mm 3 m/s 751 mmHg 73%
10:00 +14°C° 0 mm 2 m/s 751 mmHg 68%
11:00 +12°C° 0 mm 3 m/s 751 mmHg 69%
12:00 +12°C° 0 mm 4 m/s 752 mmHg 71%
13:00 +12°C° 0 mm 4 m/s 752 mmHg 72%
14:00 +9°C° 0 mm 5 m/s 752 mmHg 75%
15:00 +8°C° 0 mm 6 m/s 752 mmHg 78%
16:00 +5°C° 0 mm 7 m/s 753 mmHg 81%
17:00 +4°C° 0 mm 7 m/s 753 mmHg 81%
18:00 +3°C° 0 mm 7 m/s 754 mmHg 81%
19:00 +2°C° 0 mm 7 m/s 755 mmHg 82%
20:00 +2°C° 0.2 mm 6 m/s 755 mmHg 83%
21:00 +1°C° 0.2 mm 6 m/s 755 mmHg 83%
22:00 +1°C° 0.2 mm 6 m/s 756 mmHg 84%
23:00 +1°C° 0.1 mm 6 m/s 756 mmHg 82%

13 Aprilie, Marţi

Timp Temperatura Precipitaţii Vânt Presiune Umiditate
00:00 +1°C° 0.1 mm 5 m/s 756 mmHg 80%
01:00 +1°C° 0.1 mm 5 m/s 756 mmHg 78%
02:00 +1°C° 0.1 mm 5 m/s 756 mmHg 78%
03:00 +1°C° 0.1 mm 4 m/s 756 mmHg 77%
04:00 +1°C° 0.1 mm 4 m/s 756 mmHg 77%
05:00 +1°C° 0.1 mm 4 m/s 757 mmHg 76%
06:00 +2°C° 0.1 mm 3 m/s 757 mmHg 76%
07:00 +2°C° 0.1 mm 3 m/s 757 mmHg 75%
08:00 +2°C° 0.1 mm 3 m/s 757 mmHg 72%
09:00 +3°C° 0.1 mm 4 m/s 757 mmHg 69%
10:00 +4°C° 0.1 mm 4 m/s 757 mmHg 66%
11:00 +5°C° 0 mm 4 m/s 757 mmHg 60%
12:00 +6°C° 0 mm 4 m/s 757 mmHg 54%
13:00 +7°C° 0 mm 4 m/s 757 mmHg 48%
14:00 +7°C° 0 mm 4 m/s 757 mmHg 47%
15:00 +7°C° 0 mm 5 m/s 756 mmHg 45%
16:00 +8°C° 0 mm 5 m/s 756 mmHg 44%
17:00 +6°C° 0 mm 4 m/s 756 mmHg 49%
18:00 +5°C° 0 mm 4 m/s 757 mmHg 54%
19:00 +4°C° 0 mm 4 m/s 757 mmHg 59%
20:00 +3°C° 0 mm 4 m/s 757 mmHg 63%
21:00 +3°C° 0 mm 3 m/s 757 mmHg 67%
22:00 +2°C° 0 mm 3 m/s 757 mmHg 70%
23:00 +2°C° 0 mm 3 m/s 757 mmHg 73%

14 Aprilie, Miercuri

Timp Temperatura Precipitaţii Vânt Presiune Umiditate
00:00 +2°C° 0 mm 3 m/s 757 mmHg 75%
01:00 +1°C° 0 mm 3 m/s 757 mmHg 77%
02:00 +1°C° 0 mm 3 m/s 757 mmHg 77%
03:00 +1°C° 0 mm 3 m/s 757 mmHg 77%
04:00 +2°C° 0 mm 2 m/s 757 mmHg 77%
05:00 +1°C° 0 mm 3 m/s 757 mmHg 75%
06:00 +1°C° 0 mm 4 m/s 757 mmHg 73%
07:00 +1°C° 0 mm 4 m/s 757 mmHg 72%
08:00 +2°C° 0 mm 5 m/s 757 mmHg 65%
09:00 +5°C° 0 mm 5 m/s 757 mmHg 58%
10:00 +6°C° 0 mm 5 m/s 757 mmHg 52%
11:00 +6°C° 0 mm 5 m/s 757 mmHg 48%
12:00 +7°C° 0 mm 5 m/s 757 mmHg 45%
13:00 +8°C° 0 mm 5 m/s 756 mmHg 42%
14:00 +7°C° 0 mm 6 m/s 756 mmHg 44%
15:00 +7°C° 0 mm 6 m/s 756 mmHg 45%
16:00 +7°C° 0 mm 6 m/s 756 mmHg 47%
17:00 +6°C° 0 mm 5 m/s 756 mmHg 52%
18:00 +5°C° 0 mm 5 m/s 756 mmHg 56%
19:00 +2°C° 0 mm 5 m/s 757 mmHg 61%
20:00 +2°C° 0 mm 5 m/s 757 mmHg 63%
21:00 +1°C° 0 mm 5 m/s 757 mmHg 64%
22:00 +1°C° 0 mm 5 m/s 757 mmHg 66%
23:00 +1°C° 0 mm 5 m/s 757 mmHg 68%

15 Aprilie, Joi

Timp Temperatura Precipitaţii Vânt Presiune Umiditate
00:00 0°C° 0 mm 5 m/s 757 mmHg 70%
01:00 -1°C° 0 mm 6 m/s 757 mmHg 71%
02:00 -1°C° 0 mm 6 m/s 757 mmHg 72%
03:00 -1°C° 0 mm 6 m/s 757 mmHg 73%
04:00 -1°C° 0 mm 6 m/s 757 mmHg 73%
05:00 -1°C° 0 mm 6 m/s 757 mmHg 73%
06:00 -1°C° 0 mm 6 m/s 757 mmHg 73%
07:00 -1°C° 0 mm 6 m/s 757 mmHg 73%
08:00 0°C° 0.1 mm 7 m/s 757 mmHg 72%
09:00 0°C° 0.1 mm 7 m/s 757 mmHg 71%
10:00 0°C° 0.1 mm 8 m/s 757 mmHg 71%
11:00 0°C° 0.5 mm 8 m/s 757 mmHg 73%
12:00 0°C° 0.5 mm 8 m/s 757 mmHg 75%
13:00 +1°C° 0.5 mm 8 m/s 757 mmHg 77%
14:00 +2°C° 0.3 mm 7 m/s 757 mmHg 78%
15:00 +2°C° 0.3 mm 7 m/s 756 mmHg 79%
16:00 +2°C° 0.3 mm 7 m/s 756 mmHg 80%
17:00 0°C° 0.6 mm 7 m/s 757 mmHg 85%
18:00 0°C° 0.6 mm 7 m/s 757 mmHg 90%
19:00 -1°C° 0.6 mm 6 m/s 757 mmHg 94%
20:00 -1°C° 0.6 mm 7 m/s 757 mmHg 94%
21:00 -1°C° 0.6 mm 7 m/s 757 mmHg 95%
22:00 0°C° 0.6 mm 7 m/s 757 mmHg 95%
23:00 +1°C° 0.2 mm 6 m/s 757 mmHg 93%
Arată mai mult

Formular de consimțământ

Meteoprog și furnizorii noștri de servicii pot stoca și accesa date personale, precum cookies, identificatori de dispozitiv sau alte tehnologii similare pe dispozitivul dumneavoastră și procesa astfel de date pentru a personaliza conținutul și reclamele, dar și pentru a oferi caracteristici de social media și pentru a analiza traficul.

  • Stocarea și/sau accesarea informațiilor pe dispozitivul dumneavoastră

    Cookies, identificatori de dispozitiv sau alte informații pot fi stocate sau accesate pe dispozitiv în scopurile indicate mai sus.

  • Reclame și conținut personalizat, evaluarea reclamelor și a conținutului, informații despre audiențe și dezvoltarea produselor

    Reclamele și conținutul pot fi personalizate pe baza unui profil. Pot fi adăugate date suplimentare pentru a personaliza mai bine reclamele și conținutul. Performanța reclamelor și conținutului poate fi măsurată. Pot fi obținute informații despre utilizatorii care au văzut reclamele și conținutul. Aceste date pot fi utilizate pentru a dezvolta sau îmbunătăți experiența utilizatorilor, sistemele și software-ul.

Dând clic pe ‘Sunt de acord’, permiteți utilizarea cookie-urilor menționate, a identificatorilor de dispozitiv, balizelor web sau altor tehnologii similare. Setările pot fi modificate din browser-ul dispozitivului dumneavoastră.

În anumite scopuri, interesele legitime pot prima asupra consimțământului. Puteți citi mai multe informații în acest sens în Politica privind Confidențialitatea Datelor și Cookie.